Regional Weather Roundup
Issued by NWS Sioux Falls, SD

Home | Current Version | Previous Version | Text Only | Print | Product List | Glossary Off
Versions: 1 2 3 4 5 6 7 8 9 10 11 12 13 14 15 16 17 18 19 20 21 22 23 24 25 26 27 28 29 30 31 32 33 34 35 36 37 38 39 40 41 42 43 44 45 46 47 48 49 50

862
ASUS43 KFSD 242210
RWRFSD

WEATHER ROUNDUP FOR SE SOUTH DAKOTA/SW MINNESOTA/NW IOWA
NATIONAL WEATHER SERVICE SIOUX FALLS SD
500 PM CDT WED MAY 24 2017

NOTE: "FAIR" INDICATES FEW OR NO CLOUDS BELOW 12,000 FEET WITH NO
SIGNIFICANT WEATHER AND OR OBSTRUCTIONS TO VISIBILITY.


SDZ038>040-050-052>070-242300-
SOUTHEAST SOUTH DAKOTA

CITY           SKY/WX    TMP DP  RH WIND       PRES   REMARKS
BROOKINGS      CLOUDY    59  45  59 E10       29.68F
CHAMBERLAIN    SUNNY     69  46  43 SE15G23   29.61F
HURON          MOSUNNY   66  45  46 S15G22    29.63F
MADISON        FAIR      59  46  63 S9        29.68F
MITCHELL       PTSUNNY   65  44  46 SE14      29.65F
SIOUX FALLS    CLOUDY    63  47  55 SE8       29.68F
WINNER         FAIR      69  45  41 S17G25    29.59F
YANKTON        MOSUNNY   63  43  48 VRB3      29.68F
$$

MNZ071-072-080-081-089-090-097-098-242300-
SOUTHWEST MINNESOTA

CITY           SKY/WX    TMP DP  RH WIND       PRES   REMARKS
FAIRMONT       CLOUDY    59  45  59 NE6       29.70F
JACKSON        PTSUNNY   59  45  58 CALM      29.71S
LUVERNE        CLOUDY    59  41  51 NE7       29.70F
MARSHALL       CLOUDY    59  44  57 E5        29.70F
MONTEVIDEO     CLOUDY    61  45  55 CALM      29.70S
PIPESTONE      PTSUNNY   61  37  41 SE3       29.69F
REDWOOD FALLS  CLOUDY    60  43  53 VRB7      29.69F
TRACY          CLOUDY    59  45  59 E3        29.71S
WINDOM         MOSUNNY   59  45  58 E3        29.70F
WORTHINGTON    CLOUDY    58  45  62 NE7       29.71F
$$

IAZ001>003-012>014-020>022-031-032-NEZ013-014-SDZ071-242300-
NORTHWEST IOWA

CITY           SKY/WX    TMP DP  RH WIND       PRES   REMARKS
CHEROKEE       CLOUDY    63  44  51 NE3       29.69F
DENISON        PTSUNNY   63  45  51 CALM      29.70S
ESTHERVILLE    CLOUDY    58  48  69 N8        29.70F
LE MARS        CLOUDY    63  45  51 CALM      29.70S
ORANGE CITY    CLOUDY    63  45  51 NE5       29.69F
SHELDON        CLOUDY    63  43  48 NE5G15    29.68F
SIOUX CITY     CLOUDY    65  45  48 SE5       29.69F
SPENCER        CLOUDY    60  45  57 N7        29.70F
STORM LAKE       N/A     61  41  48 NE6       29.69S
$$

ABBREVIATIONS USED IN REMARKS
   TC - TEMPERATURE IN CELSIUS
  WCI - WIND CHILL INDEX
   HX - HEAT INDEX
  VSB - VISIBILITY





USA.gov is the U.S. government's official web portal to all federal, state and local government web resources and services.